Time,TemperatureF,DewpointF,PressureIn,WindDirection,WindDirectionDegrees,WindSpeedMPH,WindSpeedGustMPH,Humidity,HourlyPrecipIn,Conditions,Clouds,dailyrainin,SoftwareType,DateUTC
2013-05-11 00:07:00,63.2,58.0,30.10,West,281,0.0,0.0,82,0.00,,,0.00,weatherlink.com 1.10,2013-05-11 04:07:00,
2013-05-11 00:22:00,62.8,58.0,30.10,West,264,0.0,1.0,83,0.00,,,0.00,weatherlink.com 1.10,2013-05-11 04:22:00,
2013-05-11 00:37:00,62.4,58.0,30.09,West,263,0.0,0.0,85,0.00,,,0.00,weatherlink.com 1.10,2013-05-11 04:37:00,
2013-05-11 00:52:00,62.1,58.0,30.10,West,263,0.0,0.0,85,0.00,,,0.00,weatherlink.com 1.10,2013-05-11 04:52:00,
2013-05-11 01:07:00,62.2,58.0,30.10,WSW,257,0.0,1.0,85,0.00,,,0.00,weatherlink.com 1.10,2013-05-11 05:07:00,
2013-05-11 01:22:00,62.5,58.0,30.10,West,268,0.0,1.0,84,0.00,,,0.00,weatherlink.com 1.10,2013-05-11 05:22:00,
2013-05-11 01:37:00,62.7,58.0,30.09,WNW,291,0.0,2.0,83,0.00,,,0.00,weatherlink.com 1.10,2013-05-11 05:37:00,
2013-05-11 01:52:00,63.2,58.0,30.09,West,259,1.0,3.0,82,0.00,,,0.00,weatherlink.com 1.10,2013-05-11 05:52:00,
2013-05-11 02:07:00,63.2,58.0,30.08,West,264,1.0,3.0,82,0.00,,,0.00,weatherlink.com 1.10,2013-05-11 06:07:00,
2013-05-11 02:22:00,62.8,58.0,30.07,NW,311,0.0,5.0,83,0.00,,,0.00,weatherlink.com 1.10,2013-05-11 06:22:00,
2013-05-11 02:38:00,62.1,57.0,30.06,WSW,248,0.0,2.0,84,0.00,,,0.00,weatherlink.com 1.10,2013-05-11 06:38:00,
2013-05-11 02:53:00,61.3,57.0,30.06,West,275,2.0,2.0,84,0.00,,,0.00,weatherlink.com 1.10,2013-05-11 06:53:00,
2013-05-11 03:08:00,61.0,56.0,30.06,WSW,240,0.0,2.0,84,0.00,,,0.00,weatherlink.com 1.10,2013-05-11 07:08:00,
2013-05-11 03:23:00,60.1,56.0,30.05,WSW,243,0.0,1.0,87,0.00,,,0.00,weatherlink.com 1.10,2013-05-11 07:23:00,
2013-05-11 03:38:00,59.5,56.0,30.06,SW,229,0.0,1.0,88,0.00,,,0.00,weatherlink.com 1.10,2013-05-11 07:38:00,
2013-05-11 03:53:00,59.0,56.0,30.06,WSW,244,0.0,1.0,88,0.00,,,0.00,weatherlink.com 1.10,2013-05-11 07:53:00,
2013-05-11 04:08:00,58.7,55.0,30.05,WSW,253,0.0,1.0,87,0.00,,,0.00,weatherlink.com 1.10,2013-05-11 08:08:00,
2013-05-11 04:23:00,58.0,55.0,30.05,WSW,253,0.0,1.0,88,0.00,,,0.00,weatherlink.com 1.10,2013-05-11 08:23:00,
2013-05-11 04:38:00,58.1,54.0,30.05,South,170,0.0,1.0,86,0.00,,,0.00,weatherlink.com 1.10,2013-05-11 08:38:00,
2013-05-11 04:53:00,57.9,54.0,30.05,WSW,243,0.0,1.0,85,0.00,,,0.00,weatherlink.com 1.10,2013-05-11 08:53:00,
2013-05-11 05:08:00,58.9,54.0,30.04,West,271,0.0,1.0,83,0.00,,,0.00,weatherlink.com 1.10,2013-05-11 09:08:00,
2013-05-11 05:23:00,58.3,54.0,30.04,West,274,0.0,0.0,85,0.00,,,0.00,weatherlink.com 1.10,2013-05-11 09:23:00,
2013-05-11 05:38:00,57.2,54.0,30.04,West,274,0.0,1.0,88,0.00,,,0.00,weatherlink.com 1.10,2013-05-11 09:38:00,
2013-05-11 05:53:00,56.3,53.0,30.04,West,274,0.0,1.0,89,0.00,,,0.00,weatherlink.com 1.10,2013-05-11 09:53:00,
2013-05-11 06:08:00,55.5,53.0,30.04,West,274,0.0,0.0,90,0.00,,,0.00,weatherlink.com 1.10,2013-05-11 10:08:00,
2013-05-11 06:23:00,55.0,53.0,30.04,West,275,0.0,1.0,91,0.00,,,0.00,weatherlink.com 1.10,2013-05-11 10:23:00,
2013-05-11 06:38:00,54.5,53.0,30.04,NNW,339,0.0,0.0,93,0.00,,,0.00,weatherlink.com 1.10,2013-05-11 10:38:00,
2013-05-11 06:53:00,54.0,52.0,30.04,NNW,340,0.0,0.0,93,0.00,,,0.00,weatherlink.com 1.10,2013-05-11 10:53:00,
2013-05-11 07:08:00,53.8,52.0,30.04,NNW,339,0.0,1.0,95,0.00,,,0.00,weatherlink.com 1.10,2013-05-11 11:08:00,
2013-05-11 07:23:00,54.5,53.0,30.04,NNW,340,0.0,0.0,95,0.00,,,0.00,weatherlink.com 1.10,2013-05-11 11:23:00,
2013-05-11 07:38:00,55.6,54.0,30.04,NNW,340,0.0,1.0,94,0.00,,,0.00,weatherlink.com 1.10,2013-05-11 11:38:00,
2013-05-11 07:53:00,57.5,55.0,30.05,NNW,340,0.0,1.0,91,0.00,,,0.00,weatherlink.com 1.10,2013-05-11 11:53:00,
2013-05-11 08:08:00,58.6,56.0,30.05,NNE,13,0.0,1.0,90,0.00,,,0.00,weatherlink.com 1.10,2013-05-11 12:08:00,
2013-05-11 08:23:00,61.8,57.0,30.04,ESE,118,0.0,1.0,84,0.00,,,0.00,weatherlink.com 1.10,2013-05-11 12:23:00,
2013-05-11 08:38:00,65.1,58.0,30.05,East,98,0.0,1.0,77,0.00,,,0.00,weatherlink.com 1.10,2013-05-11 12:38:00,
2013-05-11 08:53:00,67.4,58.0,30.05,WNW,296,1.0,4.0,71,0.00,,,0.00,weatherlink.com 1.10,2013-05-11 12:53:00,
2013-05-11 09:08:00,67.9,57.0,30.04,West,280,2.0,4.0,69,0.00,,,0.00,weatherlink.com 1.10,2013-05-11 13:08:00,
2013-05-11 09:23:00,68.9,57.0,30.04,NW,320,2.0,5.0,67,0.00,,,0.00,weatherlink.com 1.10,2013-05-11 13:23:00,
2013-05-11 09:38:00,68.2,57.0,30.05,West,276,2.0,5.0,68,0.00,,,0.00,weatherlink.com 1.10,2013-05-11 13:38:00,
2013-05-11 09:53:00,67.2,57.0,30.06,WNW,291,3.0,5.0,69,0.00,,,0.00,weatherlink.com 1.10,2013-05-11 13:53:00,
2013-05-11 10:08:00,66.8,56.0,30.05,NW,319,2.0,6.0,69,0.00,,,0.00,weatherlink.com 1.10,2013-05-11 14:08:00,
2013-05-11 10:24:00,67.4,56.0,30.05,West,269,2.0,7.0,68,0.00,,,0.00,weatherlink.com 1.10,2013-05-11 14:24:00,
2013-05-11 10:39:00,68.8,57.0,30.04,NW,304,2.0,5.0,67,0.00,,,0.00,weatherlink.com 1.10,2013-05-11 14:39:00,
2013-05-11 10:54:00,70.7,58.0,30.03,NW,324,1.0,5.0,64,0.00,,,0.00,weatherlink.com 1.10,2013-05-11 14:54:00,
2013-05-11 11:09:00,70.6,58.0,30.04,SE,124,3.0,5.0,64,0.00,,,0.00,weatherlink.com 1.10,2013-05-11 15:09:00,
2013-05-11 11:24:00,70.6,56.0,30.03,West,270,3.0,4.0,61,0.00,,,0.00,weatherlink.com 1.10,2013-05-11 15:24:00,
2013-05-11 11:39:00,71.0,58.0,30.03,WNW,284,4.0,6.0,63,0.00,,,0.00,weatherlink.com 1.10,2013-05-11 15:39:00,
2013-05-11 11:54:00,72.0,57.0,30.03,East,91,0.0,5.0,59,0.00,,,0.00,weatherlink.com 1.10,2013-05-11 15:54:00,
2013-05-11 12:09:00,73.1,59.0,30.03,WSW,246,3.0,3.0,62,0.00,,,0.00,weatherlink.com 1.10,2013-05-11 16:09:00,
2013-05-11 12:24:00,72.1,58.0,30.03,NW,304,1.0,6.0,62,0.00,,,0.00,weatherlink.com 1.10,2013-05-11 16:24:00,
2013-05-11 12:39:00,70.9,58.0,30.04,WNW,297,2.0,7.0,65,0.00,,,0.00,weatherlink.com 1.10,2013-05-11 16:39:00,
2013-05-11 12:54:00,70.1,59.0,30.04,West,266,3.0,6.0,68,0.00,,,0.00,weatherlink.com 1.10,2013-05-11 16:54:00,
2013-05-11 13:09:00,69.6,60.0,30.03,WSW,258,2.0,8.0,72,0.00,,,0.00,weatherlink.com 1.10,2013-05-11 17:09:00,
2013-05-11 13:24:00,70.8,61.0,30.03,West,276,2.0,6.0,70,0.00,,,0.00,weatherlink.com 1.10,2013-05-11 17:24:00,
2013-05-11 13:39:00,70.7,60.0,30.02,West,264,1.0,5.0,69,0.00,,,0.00,weatherlink.com 1.10,2013-05-11 17:39:00,
2013-05-11 13:54:00,70.4,61.0,30.02,West,280,1.0,4.0,71,0.00,,,0.00,weatherlink.com 1.10,2013-05-11 17:54:00,
2013-05-11 14:09:00,70.6,60.0,30.02,WSW,243,2.0,5.0,70,0.00,,,0.00,weatherlink.com 1.10,2013-05-11 18:09:00,
2013-05-11 14:24:00,69.8,61.0,30.00,West,264,0.0,4.0,73,0.00,,,0.00,weatherlink.com 1.10,2013-05-11 18:24:00,
2013-05-11 14:39:00,71.8,62.0,30.00,East,94,1.0,5.0,70,0.00,,,0.00,weatherlink.com 1.10,2013-05-11 18:39:00,
2013-05-11 14:54:00,71.1,60.0,30.01,NW,319,3.0,5.0,69,0.00,,,0.00,weatherlink.com 1.10,2013-05-11 18:54:00,
2013-05-11 15:09:00,69.9,60.0,30.00,WNW,294,0.0,5.0,72,0.00,,,0.00,weatherlink.com 1.10,2013-05-11 19:09:00,
2013-05-11 15:24:00,69.0,60.0,30.00,WNW,285,2.0,5.0,74,0.00,,,0.00,weatherlink.com 1.10,2013-05-11 19:24:00,
2013-05-11 15:39:00,68.7,61.0,29.99,WNW,293,3.0,6.0,75,0.00,,,0.00,weatherlink.com 1.10,2013-05-11 19:39:00,
2013-05-11 15:54:00,69.6,60.0,29.99,West,267,1.0,6.0,71,0.00,,,0.00,weatherlink.com 1.10,2013-05-11 19:54:00,
2013-05-11 16:09:00,70.5,60.0,29.98,West,277,2.0,6.0,70,0.00,,,0.00,weatherlink.com 1.10,2013-05-11 20:09:00,
2013-05-11 16:24:00,72.1,61.0,29.98,WSW,241,2.0,6.0,67,0.00,,,0.00,weatherlink.com 1.10,2013-05-11 20:24:00,
2013-05-11 16:39:00,72.6,60.0,29.97,West,259,2.0,8.0,65,0.00,,,0.00,weatherlink.com 1.10,2013-05-11 20:39:00,
2013-05-11 16:54:00,71.9,60.0,29.97,West,281,2.0,8.0,66,0.00,,,0.00,weatherlink.com 1.10,2013-05-11 20:54:00,
2013-05-11 17:09:00,72.0,60.0,29.95,WSW,239,2.0,6.0,65,0.00,,,0.00,weatherlink.com 1.10,2013-05-11 21:09:00,
2013-05-11 17:24:00,71.3,59.0,29.95,SW,221,2.0,6.0,66,0.00,,,0.00,weatherlink.com 1.10,2013-05-11 21:24:00,
2013-05-11 17:39:00,70.8,59.0,29.95,NW,324,2.0,8.0,67,0.00,,,0.00,weatherlink.com 1.10,2013-05-11 21:39:00,
2013-05-11 17:54:00,70.2,60.0,29.96,NW,319,1.0,6.0,69,0.00,,,0.00,weatherlink.com 1.10,2013-05-11 21:54:00,
2013-05-11 18:09:00,69.4,54.0,29.97,ENE,59,1.0,8.0,59,0.00,,,0.00,weatherlink.com 1.10,2013-05-11 22:09:00,
2013-05-11 18:24:00,68.5,52.0,29.97,SW,233,0.0,4.0,56,0.00,,,0.00,weatherlink.com 1.10,2013-05-11 22:24:00,
2013-05-11 18:39:00,67.8,52.0,29.97,WSW,249,3.0,5.0,58,0.00,,,0.00,weatherlink.com 1.10,2013-05-11 22:39:00,
2013-05-11 18:54:00,67.3,54.0,29.98,WNW,297,2.0,4.0,63,0.00,,,0.00,weatherlink.com 1.10,2013-05-11 22:54:00,
2013-05-11 19:09:00,66.6,53.0,29.98,West,276,4.0,10.0,63,0.00,,,0.00,weatherlink.com 1.10,2013-05-11 23:09:00,
2013-05-11 19:24:00,66.0,54.0,29.98,WNW,294,0.0,6.0,65,0.00,,,0.00,weatherlink.com 1.10,2013-05-11 23:24:00,
2013-05-11 19:39:00,65.5,54.0,29.98,West,276,0.0,2.0,67,0.00,,,0.00,weatherlink.com 1.10,2013-05-11 23:39:00,
2013-05-11 19:54:00,64.2,55.0,29.99,WSW,246,1.0,2.0,73,0.00,,,0.00,weatherlink.com 1.10,2013-05-11 23:54:00,
2013-05-11 20:09:00,63.3,56.0,30.00,WSW,238,0.0,2.0,76,0.00,,,0.00,weatherlink.com 1.10,2013-05-12 00:09:00,
2013-05-11 20:24:00,62.8,55.0,29.99,West,259,1.0,4.0,76,0.00,,,0.00,weatherlink.com 1.10,2013-05-12 00:24:00,
2013-05-11 20:39:00,62.4,55.0,29.98,West,271,0.0,2.0,77,0.00,,,0.00,weatherlink.com 1.10,2013-05-12 00:39:00,
2013-05-11 20:54:00,62.1,55.0,29.98,WNW,288,0.0,2.0,78,0.00,,,0.00,weatherlink.com 1.10,2013-05-12 00:54:00,
2013-05-11 21:09:00,61.8,55.0,29.98,NW,304,2.0,3.0,79,0.00,,,0.00,weatherlink.com 1.10,2013-05-12 01:09:00,
2013-05-11 21:24:00,61.5,56.0,29.99,West,263,0.0,1.0,81,0.00,,,0.00,weatherlink.com 1.10,2013-05-12 01:24:00,
2013-05-11 21:39:00,60.9,56.0,29.98,SE,138,0.0,0.0,83,0.00,,,0.00,weatherlink.com 1.10,2013-05-12 01:39:00,
2013-05-11 21:54:00,60.7,55.0,29.99,WNW,285,0.0,1.0,82,0.00,,,0.00,weatherlink.com 1.10,2013-05-12 01:54:00,
2013-05-11 22:09:00,60.4,56.0,30.00,West,280,0.0,0.0,84,0.00,,,0.00,weatherlink.com 1.10,2013-05-12 02:09:00,
2013-05-11 22:24:00,60.0,56.0,30.00,West,280,0.0,0.0,86,0.00,,,0.00,weatherlink.com 1.10,2013-05-12 02:24:00,
2013-05-11 22:39:00,60.2,56.0,30.00,West,275,0.0,1.0,85,0.00,,,0.00,weatherlink.com 1.10,2013-05-12 02:39:00,
2013-05-11 22:54:00,59.5,55.0,30.01,NNE,32,0.0,1.0,86,0.00,,,0.00,weatherlink.com 1.10,2013-05-12 02:54:00,
2013-05-11 23:09:00,59.1,56.0,30.01,NNE,31,0.0,1.0,88,0.00,,,0.00,weatherlink.com 1.10,2013-05-12 03:09:00,
2013-05-11 23:24:00,58.5,55.0,30.02,NNE,32,0.0,0.0,89,0.00,,,0.00,weatherlink.com 1.10,2013-05-12 03:24:00,
2013-05-11 23:39:00,58.1,55.0,30.02,NNE,32,0.0,0.0,90,0.00,,,0.00,weatherlink.com 1.10,2013-05-12 03:39:00,
2013-05-11 23:54:00,57.8,55.0,30.01,NNE,31,0.0,0.0,90,0.00,,,0.00,weatherlink.com 1.10,2013-05-12 03:54:00,